Time,TemperatureF,DewpointF,PressureIn,WindDirection,WindDirectionDegrees,WindSpeedMPH,WindSpeedGustMPH,Humidity,HourlyPrecipIn,Conditions,Clouds,dailyrainin,SoftwareType,DateUTC
2013-10-07 18:16:00,73.6,71.4,29.66,ESE,112,3.1,-999.0,93,-99.99,,,0.00,Acu-Link.com,2013-10-07 22:16:00,
2013-10-07 18:31:00,74.3,71.8,29.67,ESE,112,0.0,-999.0,92,-99.99,,,0.00,Acu-Link.com,2013-10-07 22:31:00,
2013-10-07 18:47:00,74.3,72.5,29.68,ESE,112,0.0,-999.0,94,-99.99,,,0.00,Acu-Link.com,2013-10-07 22:47:00,
2013-10-07 19:02:00,73.8,71.9,29.69,ESE,112,0.0,-999.0,94,-99.99,,,0.00,Acu-Link.com,2013-10-07 23:02:00,
2013-10-07 19:17:00,73.2,71.7,29.69,ESE,112,0.0,-999.0,95,-99.99,,,0.00,Acu-Link.com,2013-10-07 23:17:00,
2013-10-07 19:32:00,73.2,71.7,29.69,ESE,112,0.0,-999.0,95,-99.99,,,0.00,Acu-Link.com,2013-10-07 23:32:00,
2013-10-07 19:48:00,72.9,71.3,29.69,ESE,112,0.0,-999.0,95,-99.99,,,0.00,Acu-Link.com,2013-10-07 23:48:00,
2013-10-07 20:03:00,72.7,71.5,29.69,East,90,0.0,-999.0,96,-99.99,,,0.00,Acu-Link.com,2013-10-08 00:03:00,
2013-10-07 20:18:00,73.0,71.8,29.69,SSE,157,0.0,-999.0,96,-99.99,,,0.00,Acu-Link.com,2013-10-08 00:18:00,
2013-10-07 20:33:00,73.2,72.0,29.69,SE,135,1.6,-999.0,96,-99.99,,,0.00,Acu-Link.com,2013-10-08 00:33:00,
2013-10-07 20:49:00,73.6,72.4,29.69,ESE,112,4.7,-999.0,96,-99.99,,,0.01,Acu-Link.com,2013-10-08 00:49:00,
2013-10-07 21:04:00,73.6,72.4,29.70,South,180,0.0,-999.0,96,-99.99,,,0.05,Acu-Link.com,2013-10-08 01:04:00,
2013-10-07 21:19:00,73.4,72.2,29.69,NW,315,2.2,-999.0,96,-99.99,,,0.05,Acu-Link.com,2013-10-08 01:19:00,
2013-10-07 21:35:00,73.4,72.2,29.70,ESE,112,2.2,-999.0,96,-99.99,,,0.05,Acu-Link.com,2013-10-08 01:35:00,
2013-10-07 21:50:00,73.4,72.2,29.70,South,180,2.7,-999.0,96,-99.99,,,0.05,Acu-Link.com,2013-10-08 01:50:00,
2013-10-07 22:05:00,73.6,72.4,29.71,SSW,202,1.1,-999.0,96,-99.99,,,0.05,Acu-Link.com,2013-10-08 02:05:00,
2013-10-07 22:20:00,74.1,72.9,29.71,SSE,157,4.7,-999.0,96,-99.99,,,0.05,Acu-Link.com,2013-10-08 02:20:00,
2013-10-07 22:36:00,74.5,73.3,29.71,SSE,157,2.2,-999.0,96,-99.99,,,0.05,Acu-Link.com,2013-10-08 02:36:00,
2013-10-07 22:51:00,74.5,73.3,29.71,South,180,2.2,-999.0,96,-99.99,,,0.05,Acu-Link.com,2013-10-08 02:51:00,
2013-10-07 23:06:00,74.7,73.4,29.71,South,180,2.2,-999.0,96,-99.99,,,0.05,Acu-Link.com,2013-10-08 03:06:00,
2013-10-07 23:22:00,75.0,73.8,29.72,SSW,202,4.3,-999.0,96,-99.99,,,0.05,Acu-Link.com,2013-10-08 03:22:00,
2013-10-07 23:37:00,75.0,73.8,29.72,South,180,2.7,-999.0,96,-99.99,,,0.05,Acu-Link.com,2013-10-08 03:37:00,
2013-10-07 23:52:00,75.0,73.8,29.71,SSW,202,2.7,-999.0,96,-99.99,,,0.05,Acu-Link.com,2013-10-08 03:52:00,